Regional Weather Roundup
Issued by NWS

Home | Current Version | Previous Version | Text Only | Print | Product List | Glossary On
Versions: 1 2 3 4 5 6 7 8 9 10 11 12 13 14 15 16 17 18 19 20 21 22 23 24 25 26 27 28 29 30 31 32 33 34 35 36 37 38 39 40 41 42 43 44 45 46 47 48 49 50
000
ASUS46 KSEW 290810
RWRWA

WASHINGTON REGIONAL WEATHER ROUNDUP
NATIONAL WEATHER SERVICE SEATTLE WA
100 AM PDT SUN MAY 29 2016

NOTE:"FAIR" INDICATES FEW OR NO CLOUDS BELOW 12,000 FEET WITH NO
SIGNIFICANT WEATHER AND/OR OBSTRUCTIONS TO VISIBILITY.

WAZ505-507>509-290900-
SEATTLE, TACOMA, EVERETT, AND VICINITY

CITY           SKY/WX    TMP DP  RH WIND       PRES   REMARKS
EVERETT        CLOUDY    55  50  83 SW8       30.04S
BOEING FIELD   CLOUDY    57  53  86 SE9       30.04S
RENTON         CLOUDY    56  54  93 SE3       30.04S
SEATAC AIRPORT MOCLDY    54  52  93 S6        30.05S
JBLM-MCCHORD   CLOUDY    55  54  94 SW7       30.05S
PUYALLUP       CLOUDY    54  54 100 CALM      30.05S
BREMERTON      CLOUDY    54  52  94 S10       30.05F
JBLM-FT LEWIS  PTCLDY    54  53  95 S7        30.05S
TACOMA NARROWS CLOUDY    54  51  90 S9        30.04S
$$

WAZ001-503-506-510-514-515-290900-
NORTH INTERIOR

CITY           SKY/WX    TMP DP  RH WIND       PRES   REMARKS
BELLINGHAM     CLOUDY    55  52  89 S5        30.00S
FRIDAY HARBOR  CLOUDY    52  49  89 SW5       30.03R
EASTSOUND      PTCLDY    54  50  87 S9        30.00R
PORT ANGELES   CLOUDY    52  50  93 NW7       30.03S
EDIZ HOOK      CLOUDY    52  49  89 NW10      30.03S
PORT TOWNSEND  CLOUDY    54  54 100 CALM      30.03S
NAS WHIDBEY    CLOUDY    55  52  89 S3        30.07R
ARLINGTON      CLOUDY    54  46  76 S5        30.05S
BURLINGTON     CLOUDY    54  52  94 CALM      30.03S
$$

WAZ020-022-039-040-504-511-512-290900-
SOUTHWEST INTERIOR

CITY           SKY/WX    TMP DP  RH WIND       PRES   REMARKS
SHELTON        CLOUDY    53  51  93 SW6       30.02S
OLYMPIA        CLOUDY    52  49  89 SW6       30.05S
CHEHALIS       FAIR      50  50 100 SW3       30.06S
KELSO          CLOUDY    55  48  76 NW5       30.11S
VANCOUVER      PTCLDY    57  50  77 CALM      30.06S
SCAPPOOSE, OR  CLOUDY    51  48  89 CALM      30.06R
PORTLAND, OR   PTCLDY    58  50  75 W5        30.07S
$$

WAZ021-516-517-290900-
WASHINGTON COAST

CITY           SKY/WX    TMP DP  RH WIND       PRES   REMARKS
FORKS          CLOUDY    51  48  89 W3        30.05S
HOQUIAM        CLOUDY    55  54  96 S8        30.06S
ASTORIA, OR    CLOUDY    54  53  97 CALM      30.07S
$$

WAZ019-023-024-040-518-519-290900-
CASCADE MOUNTAINS AND COLUMBIA GORGE

CITY           SKY/WX    TMP DP  RH WIND       PRES   REMARKS
STAMPEDE PASS  FOG       43  41  93 VRB3      30.04S VSB 1/4
TROUTDALE, OR  CLOUDY    58  49  72 SW5       30.06S
THE DALLES, OR PTCLDY    61  43  51 CALM      30.00S
$$

WAZ026-027-041>044-520-521-290900-
EAST SLOPES

CITY           SKY/WX    TMP DP  RH WIND       PRES   REMARKS
OMAK           CLOUDY    60  41  49 S10       29.94F
WENATCHEE      PTCLDY    57  43  59 NW13      29.97F
ELLENSBURG     PTCLDY    53  45  74 NW7       29.99S
YAKIMA         PTCLDY    51  43  74 W3        29.98S
$$

WAZ028-034-035-290900-
COLUMBIA BASIN

CITY           SKY/WX    TMP DP  RH WIND       PRES   REMARKS
EPHRATA        CLOUDY    61  44  53 N6        29.95F
MOSES LAKE     PTCLDY    57  41  55 CALM      29.96F
PASCO          PTCLDY    63  44  50 S6        29.96S
HERMISTON, OR  PTCLDY    56  42  59 SW9       29.97S
$$

WAZ036>038-290900-
NORTHEAST WASHINGTON

CITY           SKY/WX    TMP DP  RH WIND       PRES   REMARKS
SPOKANE GEIGER PTCLDY    51  38  60 S8        30.00S
SPOKANE FELTS  CLEAR     50  41  71 NE5       30.01S
FAIRCHILD AFB  PTCLDY    49  38  64 SE6       29.99F
COEURDALENE,ID PTCLDY    45  37  76 E3        30.00S
DEER PARK      PTCLDY    43  39  86 NW3       30.01S
$$

WAZ029>033-290900-
SOUTHEAST WASHINGTON

CITY           SKY/WX    TMP DP  RH WIND       PRES   REMARKS
PULLMAN        PTCLDY    45  40  82 CALM      30.03F
LEWISTON, ID   CLEAR     52  42  69 S5        30.00S
WALLA WALLA    PTCLDY    56  41  57 E7        29.97S
PENDLETON, OR  PTCLDY    51  41  68 CALM      29.99S
$$



USA.gov is the U.S. government's official web portal to all federal, state and local government web resources and services.